Tracking 20623 objects as of 4-Apr-2020
HD Live streaming from Space Station
objects crossing your sky now

ESTRELA DU SOL-TELSTAR14

Track ESTRELA DU SOL-TELSTAR14 now!
ESTRELA DU SOL-TELSTAR14 is classified as:


NORAD ID: 28137
Int'l Code: 2004-001A
Perigee: 36,162.1 km
Apogee: 36,242.8 km
Inclination: 6.5 °
Period: 1,457.0 minutes
Semi major axis: 42573 km
RCS: 12.5892 m2 (large)
Launch date: January 11, 2004
Source: United States/Brazil (USBZ)
Launch site: SEA LAUNCH (SEAL)

41 Ku-band transponders; direct-to-home video and internet to Brazil and North America.
aabbcc
Your satellite tracking list
Your tracking list is empty




NASA's NSSDC Master Catalog

Two Line Element Set (TLE):
1 28137U 04001A   20094.60824128 -.00000000 +00000-0 +00000-0 0  9993
2 28137 006.5010 059.8898 0009479 297.5508 270.0048 00.98831454059194
Source of the keplerian elements: AFSPC